#timestamp,LO_Frequency,Hit,StdDev 
1661072415.9,286046998.6,N
1661072435.7,286046996.5,N
1661072455.5,286046999.2,N
1661072475.4,286046999.4,N
1661072495.2,286046997.0,N
1661072515.1,286046997.8,N
1661072516.0,286046997.8,N
1661072535.8,286046994.9,N
1661072555.6,286046994.5,N
1661072575.5,286046994.8,N
1661072595.3,286046993.1,N
1661072615.2,286046992.9,N
1661072635.9,286046993.8,N
1661072655.7,286046994.9,N
1661072675.6,286046993.4,N
1661072695.4,286046995.1,N
1661072715.2,286046996.5,N
1661072735.1,286046995.2,N
1661072736.0,286046995.2,N
1661072755.8,286046998.5,N
1661072775.7,286047001.8,N
1661072795.5,286047002.2,N
1661072815.3,286047005.8,N
1661072835.2,286047002.8,N
1661072855.0,286047000.8,N
1661072855.9,286047000.8,N
1661072875.8,286046997.3,N
1661072895.6,286046993.4,N
1661072915.4,286046993.0,N
1661072935.3,286046989.0,Y
1661072955.1,286046993.2,P
1661072975.8,286046993.0,P
1661072995.7,286046991.5,P
1661073015.5,286046989.1,Y
1661073035.4,286046995.7,P
1661073055.2,286046997.1,N
1661073075.0,286046997.2,N
1661073075.9,286046997.2,N
1661073095.8,286046999.5,N
1661073115.6,286046996.8,N
1661073135.5,286046999.2,N
1661073155.3,286046997.5,N
1661073175.1,286046997.5,N
1661073195.9,286046997.6,N
1661073215.7,286046997.8,N
1661073235.5,286046996.8,N
1661073255.4,286046997.8,N
1661073275.2,286046999.2,N
1661073295.1,286046996.9,N
1661073296.0,286046996.9,N
1661073315.8,286046999.1,N
1661073335.6,286046997.0,N
1661073355.5,286046995.1,Y
1661073375.3,286046996.5,P
1661073395.1,286047001.2,N
1661073415.9,286047000.2,N
1661073435.7,286047002.4,N
1661073455.6,286047002.7,N
1661073475.4,286047002.7,N
1661073495.2,286047000.0,N
1661073515.1,286047000.4,N
1661073516.0,286047000.4,N
1661073535.8,286047000.6,N
1661073555.6,286046999.9,N
1661073575.5,286046998.3,N
1661073595.3,286046998.6,N
1661073615.2,286046998.6,N
1661073635.9,286046998.2,N
1661073655.7,286046999.4,N
1661073675.6,286046996.6,N
1661073695.4,286046997.7,N
1661073715.2,286046997.0,N
1661073735.1,286046997.7,N
1661073736.0,286046997.7,N
1661073755.8,286046999.4,N
1661073775.7,286046998.1,N
1661073795.5,286047002.4,N
1661073815.3,286047002.7,N
1661073835.2,286047002.1,N
1661073855.0,286047001.9,N
1661073855.9,286047001.9,N
1661073875.8,286046999.8,N
1661073895.6,286047001.6,N
1661073915.4,286047000.2,N
1661073935.3,286047002.2,N
1661073955.1,286047003.8,N
1661073975.9,286047005.9,N
1661073995.7,286047001.8,N
1661074015.5,286047002.2,N
1661074035.4,286047001.5,N
1661074055.2,286047002.3,N
1661074075.0,286047002.8,N
1661074075.9,286047002.8,N
1661074095.8,286047000.2,N
1661074115.6,286047002.4,N
1661074135.5,286047000.2,N
1661074155.3,286047002.3,N
1661074175.1,286047002.4,N
1661074195.9,286046999.7,N
1661074215.7,286047000.1,N
1661074235.5,286047002.7,N
1661074255.4,286046999.7,N
1661074275.2,286046999.7,N
1661074295.1,286047000.5,N
1661074296.0,286047000.5,N
1661074315.8,286047002.7,N
1661074335.6,286047002.3,N
1661074355.5,286046999.8,N
1661074375.3,286047002.1,N
1661074395.1,286047003.9,N
1661074415.9,286047005.7,Y
1661074435.7,286047005.6,P
1661074455.6,286047005.8,N
1661074475.4,286047004.4,N
1661074495.2,286047002.0,N
1661074515.1,286047003.6,N
1661074516.0,286047003.6,N
1661074535.8,286047004.0,N
1661074555.7,286047002.2,N
1661074575.5,286047000.2,N
1661074595.3,286047002.4,N
1661074615.2,286047000.4,N
1661074635.9,286046999.9,N
1661074655.7,286047002.3,N
1661074675.6,286046999.9,N
1661074695.4,286047001.0,N
1661074715.2,286046999.6,N
1661074735.1,286046998.1,N
1661074736.0,286046998.1,N
1661074755.8,286046998.5,N
1661074775.7,286047001.1,N
1661074795.5,286046998.9,N
1661074815.3,286046996.5,N
1661074835.2,286046997.2,N
1661074855.0,286046997.8,N
1661074855.9,286046997.8,N
1661074875.8,286046997.1,N
1661074895.6,286046998.0,N
1661074915.4,286046995.1,N
1661074935.3,286046998.0,N
1661074955.1,286046997.8,N
1661074975.8,286046997.3,N
1661074995.7,286046997.1,N
1661075015.5,286046995.5,N
1661075035.3,286046996.5,N
1661075055.2,286047001.2,N
1661075075.0,286046998.3,N
1661075075.9,286046998.3,N
1661075095.8,286046998.1,N
1661075115.6,286047000.9,N
1661075135.4,286046999.9,N
1661075155.3,286047002.2,N
1661075175.1,286047003.9,N
1661075195.9,286047004.0,N
1661075215.7,286047002.1,N
1661075235.5,286047002.0,N
1661075255.4,286047000.4,N
1661075275.2,286046999.9,N
1661075295.0,286047001.1,N
1661075295.9,286047001.1,N
1661075315.8,286047000.9,N
1661075335.6,286047001.0,N
1661075355.5,286047000.4,N
1661075375.3,286047000.5,N
1661075395.1,286046999.9,N
1661075415.9,286047000.7,N
1661075435.7,286046998.8,N
1661075455.5,286046999.6,N
1661075475.4,286046996.9,N
1661075495.2,286046998.8,N
1661075515.1,286046999.2,N
1661075516.0,286046999.2,N
1661075535.8,286046998.2,N
1661075555.6,286046998.6,N
1661075575.5,286047001.1,N
1661075595.3,286047000.4,N
1661075615.1,286047000.3,N
1661075635.9,286047001.1,N
1661075655.7,286046998.7,N
1661075675.6,286047001.0,N
1661075695.4,286046999.3,N
1661075715.2,286046999.2,N
1661075735.1,286046999.4,N
1661075736.0,286046999.4,N
1661075755.8,286046997.4,N
1661075775.7,286046999.5,N
1661075795.5,286046997.0,N
1661075815.3,286046998.5,N
1661075835.2,286047000.5,N
1661075855.9,286047000.6,N
1661075875.7,286047001.2,N
1661075895.6,286047000.6,N
1661075915.4,286047000.5,N
1661075935.3,286046998.9,N
1661075955.1,286046998.5,N
1661075956.0,286046998.5,N
1661075975.8,286046999.0,N
1661075995.7,286046998.4,N
